| time (UTC) | temp F | wind direction | speed knots | gust knots | rain 1hr in | rain 24hr in | rain mn in | humidity % | barometer mb |
| 20260509014523 | 49 | 307 | 0.0 | 0.0 | 0.00 | 0.06 | 0.06 | 73 | 1014.5 |
| 20260509013014 | 49 | 307 | 0.0 | 0.0 | 0.00 | 0.06 | 0.06 | 73 | 1014.2 |
| 20260509011612 | 49 | 307 | 0.0 | 0.0 | 0.00 | 0.06 | 0.06 | 73 | 1014.1 |
| 20260509010011 | 49 | 307 | 0.0 | 0.0 | 0.00 | 0.06 | 0.06 | 75 | 1013.9 |
| 20260509004519 | 49 | 307 | 0.0 | 0.0 | 0.00 | 0.06 | 0.06 | 75 | 1013.5 |
| 20260509003012 | 49 | 307 | 0.0 | 0.0 | 0.00 | 0.06 | 0.06 | 76 | 1013.5 |
| 20260509001510 | 50 | 307 | 0.0 | 0.0 | 0.00 | 0.06 | 0.06 | 75 | 1013.3 |
| 20260509000010 | 51 | 307 | 0.0 | 0.0 | 0.00 | 0.06 | 0.06 | 73 | 1013.3 |
| 20260508234508 | 51 | 307 | 0.0 | 0.0 | 0.00 | 0.06 | 0.06 | 72 | 1013.4 |
| 20260508233009 | 52 | 307 | 0.0 | 0.0 | 0.00 | 0.06 | 0.06 | 70 | 1013.3 |
| 20260508231508 | 52 | 294 | 0.0 | 0.0 | 0.00 | 0.06 | 0.06 | 70 | 1013.3 |
| 20260508230008 | 53 | 294 | 0.0 | 0.0 | 0.00 | 0.06 | 0.06 | 69 | 1013.2 |
| 20260508224517 | 53 | 294 | 0.0 | 0.0 | 0.00 | 0.06 | 0.06 | 70 | 1013.1 |
| 20260508223006 | 52 | 295 | 0.0 | 0.9 | 0.00 | 0.06 | 0.06 | 69 | 1013.1 |
| 20260508221506 | 52 | 348 | 0.0 | 1.7 | 0.00 | 0.06 | 0.06 | 69 | 1013.1 |
| 20260508220006 | 52 | 335 | 0.0 | 0.0 | 0.00 | 0.06 | 0.06 | 71 | 1013.1 |
| 20260508214518 | 52 | 44 | 0.0 | 1.7 | 0.00 | 0.06 | 0.06 | 71 | 1013.2 |
| 20260508213004 | 51 | 345 | 0.0 | 1.7 | 0.00 | 0.06 | 0.06 | 74 | 1013.0 |
| 20260508211504 | 51 | 337 | 0.0 | 1.7 | 0.00 | 0.06 | 0.06 | 74 | 1013.0 |
| 20260508210004 | 50 | 55 | 0.0 | 0.9 | 0.00 | 0.06 | 0.06 | 78 | 1013.1 |
| 20260508204503 | 50 | 290 | 0.0 | 2.6 | 0.00 | 0.06 | 0.06 | 76 | 1013.5 |
| 20260508203002 | 51 | 11 | 0.0 | 5.2 | 0.00 | 0.06 | 0.06 | 74 | 1013.4 |
| 20260508201501 | 51 | 318 | 0.9 | 6.1 | 0.00 | 0.06 | 0.06 | 71 | 1013.1 |
| 20260508200004 | 52 | 320 | 1.7 | 6.1 | 0.00 | 0.06 | 0.06 | 70 | 1012.9 |
| 20260508194502 | 52 | 340 | 2.6 | 10.4 | 0.00 | 0.06 | 0.06 | 70 | 1013.0 |
| 20260508193120 | 52 | 299 | 3.5 | 10.4 | 0.00 | 0.06 | 0.06 | 70 | 1013.1 |
| 20260508191607 | 54 | 314 | 3.5 | 7.0 | 0.00 | 0.06 | 0.06 | 69 | 1013.2 |
| 20260508190112 | 52 | 59 | 2.6 | 7.8 | 0.00 | 0.06 | 0.06 | 70 | 1013.3 |
| 20260508184556 | 52 | 318 | 3.5 | 7.8 | 0.00 | 0.06 | 0.06 | 66 | 1013.5 |
| 20260508183059 | 51 | 22 | 0.9 | 6.1 | 0.00 | 0.06 | 0.06 | 66 | 1013.4 |
| 20260508181601 | 50 | 275 | 1.7 | 6.1 | 0.00 | 0.06 | 0.06 | 65 | 1013.4 |
| 20260508180058 | 51 | 333 | 1.7 | 5.2 | 0.00 | 0.06 | 0.06 | 66 | 1013.3 |
| 20260508174553 | 52 | 241 | 1.7 | 5.2 | 0.00 | 0.06 | 0.06 | 62 | 1013.0 |
| 20260508173052 | 53 | 236 | 1.7 | 7.0 | 0.00 | 0.06 | 0.06 | 64 | 1012.9 |
| 20260508171551 | 52 | 319 | 1.7 | 7.0 | 0.00 | 0.06 | 0.06 | 62 | 1013.3 |
| 20260508170057 | 52 | 288 | 1.7 | 4.3 | 0.00 | 0.06 | 0.06 | 59 | 1013.2 |
| 20260508164549 | 53 | 272 | 2.6 | 7.0 | 0.00 | 0.06 | 0.06 | 59 | 1013.3 |
| 20260508163059 | 52 | 217 | 2.6 | 6.1 | 0.00 | 0.06 | 0.06 | 63 | 1013.3 |
| 20260508161554 | 52 | 276 | 2.6 | 5.2 | 0.00 | 0.06 | 0.06 | 63 | 1013.5 |
| 20260508160043 | 51 | 282 | 3.5 | 6.1 | 0.00 | 0.06 | 0.06 | 59 | 1013.7 |
| 20260508154543 | 51 | 214 | 2.6 | 5.2 | 0.00 | 0.06 | 0.06 | 62 | 1013.9 |
| 20260508153054 | 50 | 243 | 2.6 | 7.0 | 0.00 | 0.06 | 0.06 | 66 | 1014.0 |
| 20260508151541 | 49 | 257 | 2.6 | 7.8 | 0.00 | 0.06 | 0.06 | 65 | 1014.1 |
| 20260508150040 | 51 | 308 | 0.9 | 3.5 | 0.00 | 0.06 | 0.06 | 64 | 1014.2 |
| 20260508144538 | 50 | 320 | 1.7 | 5.2 | 0.00 | 0.06 | 0.06 | 62 | 1014.1 |
| 20260508143056 | 50 | 33 | 1.7 | 5.2 | 0.00 | 0.06 | 0.06 | 65 | 1014.0 |
| 20260508141537 | 48 | 288 | 0.9 | 3.5 | 0.00 | 0.06 | 0.06 | 70 | 1014.0 |
| 20260508140030 | 48 | 254 | 0.9 | 4.3 | 0.00 | 0.06 | 0.06 | 75 | 1014.0 |
| 20260508134535 | 47 | 314 | 1.7 | 7.8 | 0.00 | 0.06 | 0.06 | 76 | 1014.3 |
| 20260508133028 | 46 | 333 | 1.7 | 5.2 | 0.00 | 0.06 | 0.06 | 78 | 1014.3 |
| 20260508131528 | 45 | 262 | 0.9 | 6.1 | 0.00 | 0.06 | 0.06 | 82 | 1014.3 |
| 20260508130027 | 44 | 323 | 1.7 | 6.1 | 0.00 | 0.06 | 0.06 | 85 | 1014.1 |
| 20260508124529 | 43 | 323 | 0.9 | 5.2 | 0.00 | 0.06 | 0.06 | 88 | 1014.3 |
| 20260508123028 | 42 | 316 | 0.9 | 3.5 | 0.00 | 0.06 | 0.06 | 89 | 1014.2 |
| 20260508121524 | 41 | 295 | 0.9 | 3.5 | 0.00 | 0.06 | 0.06 | 91 | 1014.2 |
| 20260508120026 | 40 | 327 | 0.9 | 4.3 | 0.00 | 0.06 | 0.06 | 93 | 1014.2 |
| 20260508114524 | 40 | 248 | 0.9 | 2.6 | 0.00 | 0.06 | 0.06 | 94 | 1014.3 |
| 20260508113022 | 39 | 326 | 0.9 | 4.3 | 0.00 | 0.06 | 0.06 | 94 | 1013.9 |
| 20260508111520 | 39 | 304 | 0.0 | 4.3 | 0.00 | 0.06 | 0.06 | 95 | 1013.9 |
| 20260508110030 | 39 | 321 | 0.0 | 1.7 | 0.00 | 0.06 | 0.06 | 94 | 1013.9 |
| 20260508104518 | 39 | 319 | 0.0 | 1.7 | 0.00 | 0.06 | 0.06 | 94 | 1013.7 |
| 20260508103035 | 39 | 319 | 0.0 | 2.6 | 0.00 | 0.06 | 0.06 | 94 | 1013.6 |
| 20260508101517 | 39 | 29 | 0.9 | 2.6 | 0.00 | 0.06 | 0.06 | 94 | 1013.4 |
| 20260508100014 | 39 | 316 | 0.9 | 2.6 | 0.00 | 0.06 | 0.06 | 94 | 1013.2 |
| 20260508094511 | 38 | 321 | 0.0 | 1.7 | 0.00 | 0.06 | 0.06 | 94 | 1013.0 |
| 20260508093013 | 38 | 314 | 0.0 | 1.7 | 0.00 | 0.06 | 0.06 | 94 | 1012.8 |
| 20260508091513 | 39 | 314 | 0.0 | 0.9 | 0.00 | 0.06 | 0.06 | 93 | 1012.9 |
| 20260508090009 | 39 | 310 | 0.0 | 1.7 | 0.00 | 0.06 | 0.06 | 93 | 1012.9 |
| 20260508084508 | 39 | 330 | 0.0 | 0.9 | 0.00 | 0.06 | 0.06 | 93 | 1012.7 |
| 20260508083007 | 39 | 330 | 0.0 | 1.7 | 0.02 | 0.06 | 0.06 | 93 | 1012.5 |
| 20260508081505 | 39 | 335 | 0.0 | 1.7 | 0.02 | 0.06 | 0.06 | 92 | 1012.5 |
| 20260508080004 | 40 | 13 | 0.0 | 2.6 | 0.02 | 0.06 | 0.06 | 92 | 1012.5 |
| 20260508074504 | 40 | 333 | 1.7 | 3.5 | 0.02 | 0.07 | 0.06 | 92 | 1012.5 |
| 20260508073001 | 40 | 324 | 0.9 | 4.3 | 0.00 | 0.05 | 0.04 | 92 | 1012.8 |
| 20260508071600 | 40 | 341 | 0.9 | 2.6 | 0.00 | 0.05 | 0.04 | 91 | 1012.7 |
| 20260508070059 | 40 | 349 | 0.0 | 1.7 | 0.00 | 0.05 | 0.04 | 90 | 1012.8 |
| 20260508064557 | 40 | 55 | 0.0 | 5.2 | 0.01 | 0.09 | 0.04 | 90 | 1012.7 |
| 20260508063058 | 41 | 4 | 1.7 | 6.1 | 0.02 | 0.09 | 0.04 | 89 | 1013.0 |
| 20260508061551 | 42 | 39 | 1.7 | 5.2 | 0.03 | 0.09 | 0.04 | 89 | 1012.7 |
| 20260508054628 | 43 | 18 | 0.0 | 0.9 | 0.03 | 0.09 | 0.03 | 85 | 1013.1 |
| 20260508053050 | 44 | 42 | 1.7 | 6.1 | 0.02 | 0.08 | 0.02 | 81 | 1013.1 |
| 20260508051538 | 46 | 270 | 1.7 | 8.7 | 0.00 | 0.06 | 0.00 | 72 | 1012.8 |
| 20260508050033 | 47 | 319 | 0.9 | 3.5 | 0.00 | 0.06 | 0.00 | 65 | 1011.8 |
| 20260508044532 | 47 | 37 | 0.0 | 0.9 | 0.00 | 0.06 | 0.00 | 63 | 1010.6 |
| 20260508043034 | 47 | 41 | 0.0 | 0.9 | 0.00 | 0.06 | 0.00 | 61 | 1010.5 |
| 20260508041526 | 48 | 41 | 0.0 | 0.9 | 0.00 | 0.06 | 0.00 | 60 | 1010.5 |
| 20260508040031 | 48 | 29 | 0.0 | 0.0 | 0.00 | 0.06 | 0.00 | 60 | 1011.0 |
| 20260508034533 | 48 | 29 | 0.0 | 0.0 | 0.00 | 0.06 | 0.06 | 59 | 1010.9 |
| 20260508033029 | 48 | 29 | 0.0 | 0.0 | 0.00 | 0.06 | 0.06 | 58 | 1010.7 |
| 20260508031521 | 48 | 29 | 0.0 | 0.9 | 0.00 | 0.06 | 0.06 | 58 | 1010.8 |
| 20260508030022 | 48 | 29 | 0.0 | 0.0 | 0.00 | 0.06 | 0.06 | 58 | 1011.0 |
| 20260508024524 | 48 | 28 | 0.0 | 0.0 | 0.00 | 0.06 | 0.06 | 58 | 1011.0 |
| 20260508023019 | 48 | 28 | 0.0 | 0.0 | 0.00 | 0.06 | 0.06 | 58 | 1011.0 |
| 20260508021520 | 48 | 28 | 0.0 | 0.0 | 0.00 | 0.06 | 0.06 | 58 | 1011.0 |
| 20260508020019 | 48 | 29 | 0.0 | 0.0 | 0.00 | 0.06 | 0.06 | 58 | 1010.8 |